Location: Apollinopolis Magna
(24.9792°N, 32.8772°E)
Time: 03:30:35
(UTC+00:00)

Meteor 2-4 Rocket - Pass Details

Date: 02 March 2021
Orbit: 799 x 908 km, 81.2° (Epoch: 12 April)

Event Time Altitude Azimuth Distance (km) Brightness Sun altitude
Rises 17:20:57 0° 356° (N) 3,503 7.0 -21.1°
Reaches altitude 10° 17:23:25 10° 358° (N) 2,571 6.3 -21.7°
Maximum altitude 17:29:17 72° 83° (E) 949 3.7 -23.0°
Drops below altitude 10° 17:35:11 10° 167° (SSE) 2,581 6.1 -24.3°
Sets 17:37:39 0° 169° (S) 3,517 6.8 -24.9°
